Regional Weather Roundup
Issued by NWS

Home | Current Version | Previous Version | Text Only | Print | Product List | Glossary Off
Versions: 1 2 3 4 5 6 7 8 9 10 11 12 13 14 15 16 17 18 19 20 21 22 23 24 25 26 27 28 29 30 31 32 33 34 35 36 37 38 39 40 41 42 43 44 45 46 47 48 49 50

000
ASUS43 KDMX 290807
RWRIA

WEATHER ROUNDUP FOR IOWA
NATIONAL WEATHER SERVICE DES MOINES IA
200 AM CST THU JAN 29 2015

NOTE: "FAIR" INDICATES FEW OR NO CLOUDS BELOW 12,000 FEET WITH NO
SIGNIFICANT WEATHER AND/OR OBSTRUCTIONS TO VISIBILITY.

* - THESE STATIONS ARE NOT NWS STATIONS...THUS NOT UNDER NWS
QUALITY CONTROL.  THEY ALSO DO NOT REPORT WEATHER SUCH
AS PRECIPITATION OR FOG.

IAZ001>003-012>014-020>022-031>034-043>046-290900-
   NORTHWEST IOWA

CITY           SKY/WX    TMP DP  RH WIND       PRES   REMARKS
CARROLL *      CLOUDY    36  32  87 NW29G36   29.96R WCI  23
CHEROKEE *     CLOUDY    34  32  93 NW17G26   30.01R WCI  23
DENISON *      CLOUDY    36  34  93 N20G31    29.99R WCI  25
LE MARS *      CLOUDY    36  30  80 NW17G25   30.08R WCI  25
ORANGE CITY *  CLOUDY    36  28  75 NW18G26   30.05R WCI  25
SHELDON *      CLOUDY    34  32  93 NW21G28   30.01R WCI  22
SIOUX CITY     CLOUDY    35  30  82 NW26G35   30.08R WCI  22
SPENCER        CLOUDY    34  29  82 N31G43    29.98R WCI  20
STORM LAKE *   MIX PCPN  34  32  93 N24G35    29.98R WCI  21
$$

IAZ055>058-069>071-079>083-090>094-290900-
   SOUTHWEST IOWA

CITY           SKY/WX    TMP DP  RH WIND       PRES   REMARKS
ATLANTIC *     MIX PCPN  36  36 100 NW26G38   29.98R WCI  23
AUDUBON *      CLOUDY    36  32  87 NW25G31   29.98R WCI  23
CLARINDA *     CLOUDY    37  34  87 NW25G37   30.02R WCI  26
COUNCIL BLFS * CLOUDY    36  32  87 NW30G41   30.00R WCI  22
CRESTON *      CLOUDY    37  34  87 NW28G41   29.92R WCI  25
HARLAN  *      CLOUDY    36  36 100 NW30G44   30.03R WCI  22
LAMONI         CLOUDY    38  33  82 NW20G35   29.89R WCI  28
RED OAK *      CLOUDY    37  34  87 NW26G35   30.01R WCI  26
SHENANDOAH *   CLOUDY    39  32  75 NW30G40   30.02R WCI  27
$$

IAZ047>049-059>061-072>074-084-290900-
   CENTRAL IOWA

CITY           SKY/WX    TMP DP  RH WIND       PRES   REMARKS
AMES           CLOUDY    35  29  78 N23G33    29.88R WCI  23
ANKENY *       CLOUDY    36  32  87 N23G35    29.89R WCI  24
CHARITON *     MIX PCPN  36  32  87 NW22G38   29.86R WCI  24
DES MOINES     CLOUDY    37  31  78 N17G35    29.90R WCI  27
GRINNELL*      CLOUDY    34  32  93 NW21G28   29.81R FOG     WCI  22
KNOXVILLE *    CLOUDY    36  32  87 NW25G35   29.84R WCI  23
MARSHALLTOWN   CLOUDY    34  32  92 NW22G32   29.82R WCI  22
PELLA *        CLOUDY    36  32  87 NW22G33   29.86R WCI  24
PERRY *          N/A     36  34  93 NW26G33   29.92R WCI  23
$$

IAZ004>006-015-016-023>025-035-036-290900-
   NORTH CENTRAL IOWA

CITY           SKY/WX    TMP DP  RH WIND       PRES   REMARKS
ALGONA *       CLOUDY    34  34 100 N18G26    29.92R WCI  23
CLARION *      CLOUDY    34  34 100 N22G31    29.89R FOG     WCI  22
ESTHERVILLE    CLOUDY    32  30  92 N28G33    29.95R FOG     WCI  18
FORT DODGE *   CLOUDY    34  30  86 NW10G22   29.93R WCI  26
MASON CITY     CLOUDY    33  30  88 N22G32    29.87R WCI  21
FOREST CITY *  CLOUDY    32  32 100 NW21G31   29.88R FOG     WCI  20
IOWA FALLS *   CLOUDY    34  32  93 NW23      29.86R FOG     WCI  22
$$

IAZ007>011-017>019-026>030-037>042-050>054-066-290900-
   NORTHEAST IOWA

CITY           SKY/WX    TMP DP  RH WIND       PRES   REMARKS
CEDAR RAPIDS   CLOUDY    32  31  96 NW12      29.74R FOG     WCI  23
CHARLES CITY * CLOUDY    32  32 100 NW17G23   29.83R FOG     WCI  21
CLINTON *      PTCLDY    28  25  86 NE6       29.72R WCI  22
DECORAH *      CLOUDY    30  30 100 N9        29.79R FOG     WCI  22
DUBUQUE        CLOUDY    31  28  89 N9        29.72S FOG     WCI  23
MONTICELLO *   CLOUDY    32  32 100 N7        29.74R WCI  26
OELWEIN *      CLOUDY    32  32 100 N12       29.79R FOG     WCI  23
WATERLOO       CLOUDY    32  32 100 NW13      29.80R FOG     WCI  22
$$

IAZ064-065-067-068-078-290900-
   EAST CENTRAL IOWA

CITY           SKY/WX    TMP DP  RH WIND       PRES   REMARKS
DAVENPORT      CLEAR     30  26  85 N5        29.69R WCI  25
IOWA CITY      MOCLDY    33  31  92 NW8       29.74R WCI  26
MT. PLEASANT * PTCLDY    39  34  81 W16G23    29.71R WCI  30
MUSCATINE *    CLEAR     32  30  93 NW6       29.70R WCI  26
QUAD CITIES    PTCLDY    37  31  78 NW5       29.67R WCI  33
$$

IAZ062-063-075>077-085>089-095>099-290900-
   SOUTHEAST IOWA

CITY           SKY/WX    TMP DP  RH WIND       PRES   REMARKS
BURLINGTON     CLEAR     41  35  79 W12       29.67R
FAIRFIELD *    CLOUDY    34  32  93 W16G23    29.76R WCI  23
FORT MADISON * CLEAR     43  37  81 W21G26    29.71R
KEOKUK *       CLEAR     46  37  71 W20G26    29.71R
OSKALOOSA *    CLOUDY    34  32  93 NW23G32   29.81R FOG     WCI  22
CENTERVILLE *  CLOUDY    36  34  93 NW22G36   29.85R WCI  24
OTTUMWA        CLOUDY    36  33  89 NW18G29   29.80R WCI  26
WASHINGTON *   CLEAR     34  34 100 NW13      29.73R WCI  25
$$

ABBREVIATIONS USED IN REMARKS
   TC - TEMPERATURES IN CELSIUS
  WCI - WIND CHILL INDEX
   HX - HEAT INDEX
  VSB - VISIBILITY
$$




USA.gov is the U.S. government's official web portal to all federal, state and local government web resources and services.